Regional Weather Roundup
Issued by NWS

Home | Current Version | Previous Version | Graphics & Text | Print | Product List | Glossary On
Versions: 1 2 3 4 5 6 7 8 9 10 11 12 13 14 15 16 17 18 19 20 21 22 23 24 25 26 27 28 29 30 31 32 33 34 35 36 37 38 39 40 41 42 43 44 45 46 47 48 49 50
000
ASUS43 KOAX 212302
RWRNE

WEATHER ROUNDUP FOR NEBRASKA
NATIONAL WEATHER SERVICE OMAHA NE
600 PM CDT WED JUN 21 2017

NOTES: SATELLITE DATA IS BEING USED TO AUGMENT CLOUD COVER ABOVE
       12000 FEET.
       "FAIR" INDICATES FEW OR NO CLOUDS BELOW 12,000 FEET WITH NO
       SIGNIFICANT WEATHER AND/OR OBSTRUCTIONS TO VISIBILITY.

  * THESE STATIONS DO NOT REPORT WEATHER SUCH AS RAIN...SNOW OR FOG.

NEZ001>004-019>022-054>056-220000-
NEBRASKA PANHANDLE

CITY           SKY/WX    TMP DP  RH WIND       PRES   REMARKS
SCOTTSBLUFF    SUNNY     98  39  13 NW6       29.81F HX  93
ALLIANCE       SUNNY     94  51  23 VRB5      29.82F HX  91
CHADRON        MOSUNNY   96  50  20 N8        29.76F HX  93
GORDON         FAIR      92  52  25 CALM      29.80F
KIMBALL        SUNNY     93  44  18 N5        29.91F
SIDNEY         SUNNY     96  39  13 N8G21     29.87F HX  91
$$

NEZ057>060-069>072-079>082-220000-
SOUTHWEST NEBRASKA

CITY           SKY/WX    TMP DP  RH WIND       PRES   REMARKS
NORTH PLATTE   SUNNY    103  48  15 NW13      29.71F HX  99
IMPERIAL       SUNNY    104  32   8 NW12      29.75F HX  97
LEXINGTON      PTSUNNY   91  67  44 S10       29.69F HX  94
MCCOOK         SUNNY    104  50  16 CALM      29.68F HX 101
OGALLALA       SUNNY    101  43  13 NW10G16   29.77F HX  96
$$

NEZ005>010-023>029-035>040-094-220000-
NORTH CENTRAL NEBRASKA

CITY           SKY/WX    TMP DP  RH WIND       PRES   REMARKS
VALENTINE      SUNNY     98  52  21 N13       29.72F HX  95
AINSWORTH      PTSUNNY   93  59  31 NE3       29.72F HX  92
BROKEN BOW     MOSUNNY   97  64  33 S12       29.69F HX  99
O`NEILL        MOSUNNY   93  66  40 N6        29.68F HX  96
ORD            MOSUNNY   94  62  34 S9        29.66F HX  94
THEDFORD       CLOUDY    98  54  22 N9        29.75F HX  96
$$

NEZ041-046>049-061>064-073>077-083>087-220000-
SOUTH CENTRAL NEBRASKA

CITY           SKY/WX    TMP DP  RH WIND       PRES   REMARKS
GRAND ISLAND   SUNNY     95  68  41 SW18      29.69F HX  99
AURORA         SUNNY     97  65  34 SW18      29.68F HX  99
HASTINGS       SUNNY     96  65  35 S13G23    29.71F HX  98
HEBRON         SUNNY     97  64  33 S21G28    29.71S HX  98
HOLDREGE       SUNNY     96  63  32 S13       29.70F HX  97
KEARNEY *      CLOUDY    97  66  36 S18       29.69F HX 100
YORK           SUNNY     95  68  41 S15G23    29.68F HX  99
$$

NEZ011>018-030>034-042>045-220000-
NORTHEAST NEBRASKA

CITY           SKY/WX    TMP DP  RH WIND       PRES   REMARKS
NORFOLK        SUNNY     93  68  43 S16       29.62F HX  97
ALBION         MOSUNNY   98  65  33 S14G20    29.66F HX 101
BLAIR          SUNNY     95  64  35 S20G28    29.68F HX  97
FREMONT        SUNNY     95  65  36 S13G25    29.67S HX  97
TEKAMAH        SUNNY     98  65  33 S21G29    29.65F HX 101
WAYNE          SUNNY     96  71  43 S15       29.64F HX 103
$$

NEZ050>053-065>068-078-088>093-220000-
SOUTHEAST NEBRASKA

CITY           SKY/WX    TMP DP  RH WIND       PRES   REMARKS
LINCOLN        SUNNY     95  65  37 S18G26    29.68F HX  97
OMAHA EPPLEY   MOSUNNY   96  64  34 S20G31    29.67S HX  98
BEATRICE       SUNNY     95  62  32 S20G31    29.72S HX  95
FALLS CITY     SUNNY     91  59  33 S17G30    29.75F HX  90
NEBRASKA CITY  SUNNY     93  62  35 S23G29    29.72F HX  93
PLATTSMOUTH    SUNNY     93  61  34 S17G28    29.70F HX  93
$$

NEZ044-045-051>053-067-220000-
OMAHA AREA

CITY           SKY/WX    TMP DP  RH WIND       PRES   REMARKS
OMAHA EPPLEY   MOSUNNY   96  64  34 S20G31    29.67S HX  98
BLAIR          SUNNY     95  64  35 S20G28    29.68F HX  97
FREMONT        SUNNY     95  65  36 S13G25    29.67S HX  97
MILLARD        SUNNY     97  67  37 S14G22    29.68S HX 101
OFFUTT AFB     SUNNY     95  65  37 S16G26    29.68F HX  97
PLATTSMOUTH    SUNNY     93  61  34 S17G28    29.70F HX  93
WAHOO          FAIR      96  62  31 S18G25    29.67S HX  97
$$




USA.gov is the U.S. government's official web portal to all federal, state and local government web resources and services.